Location: Innsbruck
(47.2657°N, 11.3914°E)
Time: 02:25:55
(UTC+01:00)

XW-2F - Pass Details

Date: 06 December 2021
Orbit: 495 x 515 km, 97.5° (Epoch: 16 January)

Event Time Altitude Azimuth Distance (km) Brightness Sun altitude
Rises 05:54:54 0° 22° (NNE) 2,651 ? -18.1°
Reaches altitude 10° 05:57:12 10° 33° (NNE) 1,757 ? -17.7°
Maximum altitude 06:00:34 30° 96° (E) 944 ? -17.1°
Drops below altitude 10° 06:03:55 10° 159° (SSE) 1,737 ? -16.6°
Sets 06:06:11 0° 170° (S) 2,615 ? -16.2°
